7 * 24
多渠道服务支持
STARLINK-34356是美国SpaceX公司于2025年6月8日发射的星链低轨互联网通信卫星,属于全球规模最大卫星星座星链的组成部分。卫星采用平板设计,单星配备太阳能阵,以氪为工质的霍尔推进器,支持自主避撞控制,寿命末期可主动离轨再入大气层烧毁。 该卫星依托Ku、Ka波段通信载荷和光学星间链路技术,旨在为全球尤其是偏远未覆盖地区提供高速宽带互联网服务,助力缩小数字鸿沟,进一步扩充星链星座的全球服务覆盖能力。
美国
(US)
| 数据来源 | 国际轨道数据 |
| 星历时间: | 2026-09-04T14:00:02+0800 6小时前 查看轨道信息 |
| 半长轴: | 6895.943km |
| 偏心率: | 0.0002834 |
| 轨道倾角: | 70.000° |
| 近地点辐角 | 235.316° |
| 升交点赤经 | 104.008° |
| 平近点角 | 58.360° |
| 近地点: | 515.851km |
| 远地点: | 519.761km |
| 周期: | 94.984分钟 |
| 每日圈数: | 15.160458 |